Regional Weather Roundup
Issued by NWS

Home | Current Version | Previous Version | Text Only | Print | Product List | Glossary Off
Versions: 1 2 3 4 5 6 7 8 9 10 11 12 13 14 15 16 17 18 19 20 21 22 23 24 25 26 27 28 29 30 31 32 33 34 35 36 37 38 39 40 41 42 43 44 45 46 47 48 49 50

000
ASUS43 KIND 191409
RWRIN

WEATHER ROUNDUP FOR INDIANA
NATIONAL WEATHER SERVICE INDIANAPOLIS IN
1000 AM EDT SAT APR 19 2014

NOTE: "FAIR" INDICATES FEW OR NO CLOUDS BELOW 12,000 FEET WITH NO
SIGNIFICANT WEATHER AND/OR OBSTRUCTIONS TO VISIBILITY.

* - STATION DOES NOT REPORT WEATHER SUCH AS PRECIPITATION OR FOG.

+ - STATION NOT QUALITY CONTROLLED BY THE NATIONAL WEATHER SERVICE.
    USE DATA WITH CAUTION...ESPECIALLY DEWPOINT AND RELATIVE
    HUMIDITY OBSERVATIONS.

INZ001>003-010>013-019-020-191500-
NORTHWEST INDIANA

CITY           SKY/WX    TMP DP  RH WIND       PRES   REMARKS
GARY /AIRPORT/ SUNNY     46  36  66 CALM      30.39S
LA PORTE +     SUNNY     46  36  66 E12       30.39S
MICHIGAN CITY+ SUNNY     46  36  66 SE5       30.38F
MONTICELLO +   SUNNY     46  38  72 E8G16     30.36S
RENSSELAER +   SUNNY     46  37  71 CALM      30.37S
VALPARAISO     SUNNY     47  37  68 E13       30.38R

$$

LMZ046-743>745-191500-
SOUTHERN LAKE MICHIGAN

STATION/POSITION TIME  TEMP WIND        PRES
                       AIR  DIR/SP/G
                 (UTC) (F)  (DEG/KT/KT) (MB)
MICHIGAN CITY    1400   45   90/  7/ 10   N/A

$$

INZ004-005-014>016-021>024-191500-
NORTH CENTRAL INDIANA

CITY           SKY/WX    TMP DP  RH WIND       PRES   REMARKS
ELKHART        SUNNY     45  36  70 E10       30.41
GOSHEN         SUNNY     45  35  68 E13       30.40S
LOGANSPORT +   SUNNY     46  36  66 E15       30.37F
PERU/GRISSOM   SUNNY     47  40  77 E15       30.36F
ROCHESTER +    SUNNY     48  37  66 E14       30.39S
SOUTH BEND     SUNNY     47  35  63 E15       30.40S
WARSAW +       SUNNY     45  34  65 E12       30.40S

$$

INZ006>009-017-018-025>027-191500-
NORTHEAST INDIANA

CITY           SKY/WX    TMP DP  RH WIND       PRES   REMARKS
ANGOLA *+      SUNNY     41  30  65 E8        30.41F
AUBURN +       SUNNY     43  32  65 E13       30.42S
FORT WAYNE     SUNNY     44  34  67 E15       30.41S

$$

INZ028-029-035-036-043>045-051>053-191500-
WEST CENTRAL INDIANA

CITY           SKY/WX    TMP DP  RH WIND       PRES   REMARKS
GREENCASTLE +  SUNNY     52  41  66 E9        30.33S
LAFAYETTE      SUNNY     49  38  65 E14       30.35S
TERRE HAUTE    SUNNY     55  40  56 E7        30.32S

$$

INZ030>032-037>040-046>048-054>057-064-065-191500-
CENTRAL INDIANA

CITY           SKY/WX    TMP DP  RH WIND       PRES   REMARKS
ANDERSON       SUNNY     48  41  76 NE17      30.36S HAZE
CP ATTERBURY + SUNNY     52  41  66 E6        30.33S
COLUMBUS       SUNNY     54  45  71 NE9       30.32S
INDIANAPOLIS   MOSUNNY   51  40  65 NE9       30.34R
-EAGLE CREEK   SUNNY     51  39  63 E8        30.33S
KOKOMO *+      SUNNY     46  37  71 E18       30.37S
MARION +       SUNNY     44  36  71 E14       30.38R
MT COMFORT *+  SUNNY     52  45  76 NE9       30.34S
SHELBYVILLE    SUNNY     55  42  61 NE13      30.33R
ZIONSVILLE +   SUNNY     50  40  69 E10       30.35S

$$

INZ033-034-041-042-049-050-058-059-191500-
EAST CENTRAL INDIANA

CITY           SKY/WX    TMP DP  RH WIND       PRES   REMARKS
MUNCIE         SUNNY     47  39  74 E13       30.36S

$$

INZ060-061-067>069-081>083-085>088-191500-
SOUTHWEST INDIANA

CITY           SKY/WX    TMP DP  RH WIND       PRES   REMARKS
EVANSVILLE     SUNNY     60  41  49 E7        30.28S
HUNTINGBURG *+ SUNNY     57  39  51 E9        30.29S
WASHINGTON +   SUNNY     56  42  59 E8        30.29F

$$

INZ062-063-066-070>080-084-089>092-191500-
SOUTH CENTRAL AND SOUTHEAST INDIANA

CITY           SKY/WX    TMP DP  RH WIND       PRES   REMARKS
BEDFORD +      SUNNY     59  37  44 NE7       30.30F
BLOOMINGTON    SUNNY     56  38  50 E8        30.31S
NORTH VERNON + SUNNY     57  41  54 NE10      30.32R
SEYMOUR +      SUNNY     52  27  37 NE7       30.31S

$$




USA.gov is the U.S. government's official web portal to all federal, state and local government web resources and services.